CW0451 Weather Reports


Display with metric or nautical units.
time (UTC)temp
F
wind
direction
speed
MPH
gust
MPH
rain 1hr
in
rain 24hr
in
rain mn
in
humidity
%
barometer
mb
20260509205103 55 202 8.0 14.0 0.09 0.14 0.14 90 1011.6
20260509204102 55 199 7.0 15.0 0.09 0.14 0.14 89 1011.7
20260509203103 56 200 8.0 14.0 0.07 0.12 0.12 88 1011.6
20260509202102 56 213 10.0 18.0 0.03 0.08 0.08 87 1011.9
20260509201103 57 208 15.0 29.0 0.03 0.08 0.08 84 1011.9
20260509200103 58 207 11.0 22.0 0.00 0.05 0.05 81 1011.9
20260509195103 59 204 11.0 21.0 0.00 0.05 0.05 80 1011.6
20260509194102 59 206 13.0 20.0 0.00 0.05 0.05 79 1011.7
20260509193124 59 217 11.0 19.0 0.00 0.05 0.05 77 1011.7
20260509192103 60 201 10.0 20.0 0.00 0.05 0.05 76 1011.7
20260509191102 60 196 10.0 26.0 0.00 0.05 0.05 75 1011.8
20260509185102 60 195 11.0 21.0 0.00 0.05 0.05 76 1011.8
20260509184103 60 193 11.0 21.0 0.00 0.05 0.05 76 1012.1
20260509183102 60 187 12.0 18.0 0.00 0.05 0.05 78 1012.0
20260509182103 60 182 10.0 17.0 0.00 0.05 0.05 78 1012.0
20260509181103 59 189 12.0 18.0 0.00 0.05 0.05 78 1012.1
20260509175103 57 202 5.0 14.0 0.00 0.05 0.05 82 1012.2
20260509174102 57 194 8.0 12.0 0.00 0.05 0.05 82 1012.4
20260509173124 56 207 7.0 14.0 0.00 0.05 0.05 82 1012.5
20260509172103 56 212 9.0 16.0 0.00 0.05 0.05 81 1013.0
20260509171102 56 198 7.0 15.0 0.00 0.05 0.05 81 1013.0
20260509165102 58 200 10.0 17.0 0.00 0.05 0.05 76 1012.9
20260509164103 58 212 11.0 19.0 0.00 0.05 0.05 75 1012.8
20260509163102 59 223 7.0 13.0 0.00 0.05 0.05 75 1012.8
20260509162103 59 202 11.0 15.0 0.00 0.05 0.05 75 1012.8
20260509161103 59 183 8.0 18.0 0.00 0.05 0.05 75 1012.8
20260509160124 59 190 9.0 24.0 0.00 0.05 0.05 74 1012.8
20260509155102 59 183 9.0 17.0 0.00 0.05 0.05 75 1012.9
20260509154124 59 196 10.0 20.0 0.00 0.05 0.05 74 1013.2
20260509153102 59 179 12.0 20.0 0.00 0.05 0.05 76 1013.1
20260509152103 59 166 7.0 14.0 0.00 0.05 0.05 76 1013.1
20260509151103 59 187 10.0 17.0 0.00 0.05 0.05 76 1013.1
20260509145103 58 173 9.0 21.0 0.00 0.05 0.05 81 1013.5
20260509144103 57 164 9.0 14.0 0.00 0.05 0.05 83 1013.2
20260509143102 56 155 5.0 13.0 0.00 0.05 0.05 82 1013.1
20260509142103 56 147 9.0 13.0 0.00 0.05 0.05 83 1013.3
20260509141103 55 165 7.0 14.0 0.00 0.05 0.05 86 1013.5
20260509135103 54 156 6.0 10.0 0.00 0.05 0.05 91 1014.0
20260509134102 53 134 4.0 11.0 0.00 0.05 0.05 92 1013.9
20260509133102 52 158 6.0 10.0 0.00 0.05 0.05 94 1014.1
20260509132103 51 153 3.0 5.0 0.00 0.05 0.05 94 1014.2
20260509131102 50 140 1.0 6.0 0.00 0.05 0.05 94 1014.3
20260509125102 48 73 2.0 4.0 0.00 0.05 0.05 94 1014.2
20260509124103 47 107 2.0 3.0 0.00 0.05 0.05 94 1014.3
20260509123102 47 147 1.0 5.0 0.00 0.05 0.05 94 1014.4
20260509122103 46 146 2.0 4.0 0.00 0.05 0.05 94 1014.4
20260509121103 45 116 1.0 4.0 0.00 0.05 0.05 94 1014.2
20260509115103 44 77 2.0 4.0 0.02 0.05 0.05 94 1014.3
20260509114124 43 83 2.0 4.0 0.02 0.05 0.05 93 1014.5
20260509113102 43 78 1.0 3.0 0.02 0.05 0.05 93 1014.6
20260509112103 42 64 1.0 3.0 0.01 0.04 0.04 93 1014.9
20260509111102 42 265 1.0 2.0 0.01 0.04 0.04 93 1014.9
20260509105103 41 266 0.0 0.0 0.02 0.02 0.02 93 1015.0
20260509104108 41 266 0.0 0.0 0.01 0.01 0.01 93 1014.7
20260509103103 41 232 0.0 0.0 0.01 0.01 0.01 93 1014.5
20260509102102 41 232 0.0 2.0 0.00 0.00 0.00 93 1014.5
20260509101103 41 232 0.0 2.0 0.00 0.00 0.00 93 1014.5
20260509095103 40 251 2.0 3.0 0.00 0.00 0.00 93 1014.0
20260509094102 40 251 1.0 2.0 0.00 0.00 0.00 93 1013.7
20260509093124 39 252 0.0 2.0 0.00 0.00 0.00 93 1013.5
20260509092103 39 333 0.0 2.0 0.00 0.00 0.00 93 1013.3
20260509091102 38 333 0.0 0.0 0.00 0.00 0.00 93 1013.3
20260509090124 38 333 0.0 0.0 0.00 0.00 0.00 93 1013.4
20260509085103 38 333 0.0 0.0 0.00 0.00 0.00 92 1013.4
20260509084102 37 333 0.0 0.0 0.00 0.00 0.00 92 1013.2
20260509083103 37 333 0.0 1.0 0.00 0.00 0.00 92 1013.2
20260509082145 37 333 0.0 0.0 0.00 0.00 0.00 92 1013.3
20260509081124 37 333 0.0 0.0 0.00 0.00 0.00 92 1013.5
20260509080125 36 333 0.0 0.0 0.00 0.00 0.00 92 1013.5
20260509075102 36 333 0.0 1.0 0.00 0.00 0.00 92 1013.7
20260509074102 36 333 0.0 0.0 0.00 0.00 0.00 92 1013.6
20260509073103 36 333 0.0 1.0 0.00 0.00 0.00 92 1013.8
20260509072124 36 333 0.0 1.0 0.00 0.00 0.00 92 1013.9
20260509071102 35 332 0.0 1.0 0.00 0.00 0.00 91 1013.7
20260509065102 36 332 0.0 1.0 0.00 0.00 0.00 91 1013.9
20260509064103 36 333 0.0 2.0 0.00 0.00 0.00 91 1013.8
20260509063124 36 332 0.0 2.0 0.00 0.00 0.00 91 1013.7
20260509062102 36 333 0.0 0.0 0.00 0.00 0.00 91 1013.9
20260509061103 36 333 0.0 0.0 0.00 0.00 0.00 91 1013.7
20260509055103 36 333 0.0 2.0 0.00 0.00 0.00 90 1013.5
20260509054103 36 332 1.0 2.0 0.00 0.00 0.00 90 1013.6
20260509053102 36 332 1.0 2.0 0.00 0.00 0.00 90 1013.6
20260509052103 36 333 0.0 1.0 0.00 0.00 0.00 90 1013.6
20260509051102 36 332 0.0 1.0 0.00 0.00 0.00 89 1013.6
20260509045102 37 333 0.0 2.0 0.00 0.00 0.00 89 1013.5
20260509044103 37 332 1.0 2.0 0.00 0.00 0.00 89 1013.5
20260509043103 37 305 2.0 3.0 0.00 0.00 0.00 89 1013.5
20260509042103 37 229 0.0 4.0 0.00 0.00 0.00 89 1013.5
20260509041102 38 253 2.0 3.0 0.00 0.00 0.00 89 1013.3
20260509040124 38 318 0.0 1.0 0.00 0.00 0.00 88 1013.2
20260509035145 39 317 1.0 1.0 0.00 0.00 0.00 88 1013.2
20260509034103 39 318 0.0 1.0 0.00 0.00 0.00 88 1013.1
20260509033145 39 318 0.0 0.0 0.00 0.00 0.00 87 1013.1
20260509031124 40 317 1.0 1.0 0.00 0.00 0.00 86 1013.0
20260509025103 41 318 0.0 1.0 0.00 0.00 0.00 84 1012.9
20260509024102 41 317 0.0 2.0 0.00 0.00 0.00 83 1012.9
20260509023102 42 317 0.0 1.0 0.00 0.00 0.00 83 1012.8
20260509022102 42 318 0.0 0.0 0.00 0.00 0.00 82 1012.8
20260509021102 43 318 0.0 0.0 0.00 0.00 0.00 81 1012.7
20260509015102 44 318 0.0 0.0 0.00 0.00 0.00 79 1012.4
20260509014103 45 318 0.0 0.0 0.00 0.00 0.00 75 1012.3
20260509013102 46 318 0.0 0.0 0.00 0.00 0.00 73 1012.2
20260509012103 47 318 0.0 0.0 0.00 0.00 0.00 69 1011.9
20260509011103 49 318 0.0 1.0 0.00 0.00 0.00 63 1011.8
20260509005103 51 317 1.0 4.0 0.00 0.00 0.00 59 1011.3
20260509004102 52 301 2.0 5.0 0.00 0.00 0.00 55 1011.1
20260509003103 53 303 3.0 7.0 0.00 0.00 0.00 55 1011.0
20260509002102 53 303 2.0 7.0 0.00 0.00 0.00 53 1010.7
20260509001103 54 310 2.0 9.0 0.00 0.00 0.00 52 1010.5
20260509000103 54 297 4.0 10.0 0.00 0.00 0.00 52 1010.4
20260508235103 54 301 3.0 9.0 0.00 0.00 0.00 51 1010.2
20260508234103 55 315 7.0 11.0 0.00 0.00 0.00 52 1009.9
20260508233103 56 321 6.0 10.0 0.00 0.00 0.00 51 1009.8
20260508232103 56 330 3.0 12.0 0.00 0.00 0.00 52 1009.7
20260508231103 57 304 4.0 15.0 0.00 0.00 0.00 51 1009.6
20260508225102 57 312 7.0 16.0 0.00 0.00 0.00 50 1009.5
20260508224103 57 307 10.0 18.0 0.00 0.00 0.00 49 1009.4
20260508223102 58 301 7.0 16.0 0.00 0.00 0.00 51 1009.3
20260508222103 58 337 13.0 20.0 0.00 0.00 0.00 50 1009.3
20260508221103 58 287 6.0 19.0 0.00 0.00 0.00 50 1009.3
20260508215103 58 318 12.0 18.0 0.00 0.00 0.00 50 1009.2
20260508214102 58 297 11.0 20.0 0.00 0.00 0.00 50 1009.3
20260508213103 58 327 12.0 22.0 0.00 0.00 0.00 49 1009.2
20260508212102 59 311 12.0 20.0 0.00 0.00 0.00 49 1009.2
20260508211103 59 344 14.0 18.0 0.00 0.00 0.00 51 1008.9
20260508210103 59 318 10.0 17.0 0.00 0.00 0.00 51 1008.9